Voltar ao catálogo

LEMUR 2 LLOYD

AtivoMeteoSSO
NORAD 60577·PAYLOAD·🇺🇸 United States

Lançado Aug 16, 2024 de Vandenberg Space Force Base

Loading…

Próximas Passagens (próximas 24 horas)

TLE

AtualizadoSource: Space-Track

Época: Sep 14, 2026, 04:06 UTC

1 60577U 24149DP  26257.17111927  .00007564  00000-0  46048-3 0  9993
2 60577  97.6699 338.4197 0003491 184.2880 175.8320 15.10695454113827

Acompanhe LEMUR 2 LLOYD em tempo real com AllMySat

Download on the App Store